星链-32958 (STARLINK-32958)

导读

STARLINK-32958是美国SpaceX星链星座的卫星,于2025年4月13日发射,属于星链低轨互联网星座扩容组网任务。星链计划旨在构建全球覆盖的卫星互联网系统,该卫星加入星座后,进一步提升了系统在全球尤其是偏远地区的网络覆盖能力,推动星链服务的容量与稳定性提升。

Basic Information
目录编号:
63563
目录名称:
STARLINK-32958
国际标识:
2025-075R
轨道中心:
EARTH
卫星名称:
星链-32958
卫星全名:
星链-32958 (STARLINK-32958)
卫星状态:
在轨 (已飞行510 天)
发射日期:
2025-04-13 UTC
国别 :
美国 (US)
星等 :
--
Orbit Information
数据来源 国际轨道数据
星历时间: 2026-09-05T06:53:39+0800
12小时前
查看轨道信息
半长轴: 6861.188km
偏心率: 0.0000552
轨道倾角: 42.998°
近地点辐角 290.297°
升交点赤经 338.234°
平近点角 69.782°
近地点: 482.672km
远地点: 483.43km
周期: 94.267分钟
每日圈数: 15.275794
Detailed Information
固有亮度:
5
最大亮度:
2.5
卫星平台:
Starlink V1.0
覆盖范围:
全球
运营商:
太空探索技术公司
运营商所在国:
美国
制造商(研发单位):
太空探索技术公司
制造商所在国:
美国
使用方式:
暂无
Satellite Introduction
Starlink 计划是 SpaceX 推出的全球卫星互联网项目,通过发射低轨道卫星,为全球尤其是偏远地区提供高速、低延迟的互联网服务。自 2019 年起,Starlink 已部署数千颗卫星,旨在缩小全球数字鸿沟,推动互联网普及。该项目还为军事、航空等行业提供通信支持,带来广泛经济效益。
2D Orbit Map
3D Orbit Map
Orbit Altitude Analysis Chart
Orbit Inclination Analysis Chart
Orbit Comprehensive Analysis Chart
View Comprehensive Chart
Conjunction Data List
Event ID Objects TCA Miss Dist (km) Collision Risk Probability Collision Risk Index (CRI) Action
CDM_260907-184906-356306-718621
2026-09-07T
18:49:39+0000
1.160 km
极远距离
6.063538E-6 低风险 0.51
CDM_260906-210405-321206-356321
2026-09-06T
21:04:29+0000
1.922 km
极远距离
2.039882E-6 低风险 0.41